This is the latest recevied weather packets stored in our database for station/object N9BSW. If no packets are shown the sender has not sent any weather packets the latest 1 day(s).
| Time | Temp. | Humidity | Pressure | Rain* | Wind** | Luminosity | Snow |
|---|---|---|---|---|---|---|---|
| 1778070669 | 8.89° C | 97% | 1013 hPa | 0 mm | - | 101 W/m² | - |
| 1778070365 | 8.33° C | 98% | 1013 hPa | 0 mm | - | 65 W/m² | - |
| 1778069155 | 8.89° C | 98% | 1012.8 hPa | 0 mm | - | 52 W/m² | - |
| 1778068248 | 7.22° C | 99% | 1012.2 hPa | 0 mm | - | 52 W/m² | - |
| 1778067341 | 6.67° C | 98% | 1011.9 hPa | 0 mm | - | 37 W/m² | - |
| 1778067038 | 6.67° C | 98% | 1012.3 hPa | 0 mm | - | 35 W/m² | - |
| 1778064615 | 6.67° C | 97% | 1011 hPa | 0 mm | - | 7 W/m² | - |
| 1778064313 | 6.67° C | 97% | 1011 hPa | 0 mm | - | 5 W/m² | - |
| 1778063404 | 7.22° C | 97% | 1010.9 hPa | 0 mm | - | 1 W/m² | - |
| 1778062193 | 7.22° C | 97% | 1010.3 hPa | 0 mm | - | 0 W/m² | - |
| 1778060983 | 7.22° C | 97% | 1011.1 hPa | 0 mm | - | 0 W/m² | - |
| 1778060682 | 7.22° C | 97% | 1011.2 hPa | 0 mm | - | 0 W/m² | - |
| 1778060379 | 7.22° C | 97% | 1010.8 hPa | 0 mm | - | 0 W/m² | - |
| 1778060077 | 7.22° C | 97% | 1010.6 hPa | 0 mm | - | 0 W/m² | - |
| 1778059774 | 7.22° C | 97% | 1010.6 hPa | 0 mm | - | 0 W/m² | - |
| 1778058867 | 7.22° C | 96% | 1010.7 hPa | 0 mm | - | 0 W/m² | - |
| 1778057958 | 7.22° C | 95% | 1010.2 hPa | 0 mm | - | 0 W/m² | - |
| 1778057048 | 7.22° C | 95% | 1010 hPa | 0 mm | - | 0 W/m² | - |
| 1778056744 | 7.22° C | 95% | 1010.1 hPa | 0 mm | - | 0 W/m² | - |
| 1778055835 | 7.22° C | 95% | 1010.6 hPa | 0 mm | - | 0 W/m² | - |
| 1778055531 | 7.22° C | 95% | 1010.7 hPa | 0 mm | - | 0 W/m² | - |
| 1778054927 | 7.22° C | 95% | 1010.4 hPa | 0 mm | - | 0 W/m² | - |
| 1778053110 | 7.22° C | 95% | 1009.9 hPa | 0 mm | - | 0 W/m² | - |
| 1778052504 | 7.22° C | 94% | 1009.7 hPa | 0 mm | - | 0 W/m² | - |
| 1778052202 | 7.78° C | 95% | 1009.5 hPa | 0 mm | - | 0 W/m² | - |
* Rain latest hour (hover to see other rain measurements)
** Current wind speed in m/s (hover to see current wind gust speed)